TimePST,TemperatureF,Dew PointF,Humidity,Sea Level PressureIn,VisibilityMPH,Wind Direction,Wind SpeedMPH,Gust SpeedMPH,PrecipitationIn,Events,Conditions,WindDirDegrees,DateUTC
12:52 AM,23.0,17.1,78,30.23,10.0,Calm,Calm,-,N/A,,Overcast,0,2013-01-23 08:52:00
1:52 AM,23.0,17.1,78,30.24,10.0,Calm,Calm,-,N/A,,Overcast,0,2013-01-23 09:52:00
2:52 AM,23.0,17.1,78,30.24,10.0,WNW,3.5,-,N/A,,Overcast,300,2013-01-23 10:52:00
3:52 AM,21.9,17.1,82,30.20,10.0,NNW,3.5,-,N/A,,Overcast,330,2013-01-23 11:52:00
4:52 AM,21.9,17.1,82,30.19,10.0,Calm,Calm,-,N/A,,Overcast,0,2013-01-23 12:52:00
5:52 AM,21.9,17.1,82,30.19,9.0,Calm,Calm,-,N/A,,Overcast,0,2013-01-23 13:52:00
6:52 AM,21.9,18.0,85,30.16,8.0,Calm,Calm,-,N/A,,Mostly Cloudy,0,2013-01-23 14:52:00
7:00 AM,21.2,17.6,86,30.10,9.0,Calm,Calm,-,N/A,,Scattered Clouds,0,2013-01-23 15:00:00
7:09 AM,23.0,17.6,80,30.10,9.0,Calm,Calm,-,N/A,,Partly Cloudy,0,2013-01-23 15:09:00
7:52 AM,21.9,18.0,85,30.17,7.0,Calm,Calm,-,N/A,,Clear,0,2013-01-23 15:52:00
8:52 AM,24.1,18.0,77,30.15,7.0,Calm,Calm,-,N/A,,Clear,0,2013-01-23 16:52:00
9:52 AM,24.1,19.0,81,30.12,7.0,Calm,Calm,-,N/A,,Partly Cloudy,0,2013-01-23 17:52:00
10:52 AM,25.0,19.0,78,30.14,7.0,SW,5.8,-,N/A,,Overcast,220,2013-01-23 18:52:00
11:52 AM,25.0,19.0,78,30.09,8.0,Calm,Calm,-,N/A,,Overcast,0,2013-01-23 19:52:00
12:52 PM,26.1,19.0,75,30.06,8.0,Calm,Calm,-,N/A,,Overcast,0,2013-01-23 20:52:00
1:11 PM,26.6,19.4,74,30.01,5.0,West,3.5,-,N/A,Rain,Light Freezing Rain,270,2013-01-23 21:11:00
1:38 PM,26.6,21.2,80,30.01,7.0,Calm,Calm,-,N/A,,Overcast,0,2013-01-23 21:38:00
1:52 PM,26.1,19.9,78,30.06,7.0,Calm,Calm,-,0.00,,Overcast,0,2013-01-23 21:52:00
2:52 PM,27.0,21.0,78,30.02,6.0,Calm,Calm,-,0.00,,Haze,0,2013-01-23 22:52:00
3:52 PM,27.0,21.0,78,30.04,7.0,WSW,8.1,-,N/A,,Overcast,240,2013-01-23 23:52:00
4:52 PM,27.0,21.0,78,30.04,8.0,SW,6.9,-,N/A,,Overcast,230,2013-01-24 00:52:00
5:52 PM,27.0,21.0,78,30.02,9.0,SSW,5.8,-,N/A,,Overcast,200,2013-01-24 01:52:00
6:52 PM,27.0,21.0,78,30.04,9.0,SW,8.1,-,N/A,,Overcast,230,2013-01-24 02:52:00
7:52 PM,27.0,21.0,78,30.05,9.0,South,9.2,-,N/A,,Scattered Clouds,180,2013-01-24 03:52:00
8:52 PM,26.1,21.0,81,30.08,8.0,South,4.6,-,N/A,,Partly Cloudy,180,2013-01-24 04:52:00
9:52 PM,25.0,19.0,78,30.10,9.0,SSE,6.9,-,N/A,,Scattered Clouds,160,2013-01-24 05:52:00
10:52 PM,21.9,19.0,89,30.12,7.0,South,4.6,-,N/A,,Clear,170,2013-01-24 06:52:00
11:52 PM,21.0,18.0,88,30.14,6.0,Calm,Calm,-,N/A,,Clear,0,2013-01-24 07:52:00